Location: Albany
(35.0170°S, 117.8920°E)
Time: 20:55:37
(UTC+08:00)

A-11 Canister half - Pass Details

Date: 24 January 2021
Orbit: 1525 x 1684 km, 47.3° (Epoch: 03 March)

Event Time Altitude Azimuth Distance (km) Brightness Sun altitude
Rises 03:41:59 0° 285° (WNW) 4,936 - -17.7°
Reaches altitude 10° 03:45:17 10° 280° (W) 3,944 - -17.2°
Exits shadow 03:46:36 15° 277° (W) 3,560 10.4 -17.0°
Maximum altitude 03:55:11 55° 203° (SSW) 1,935 9.6 -15.6°
Drops below altitude 10° 04:04:53 10° 126° (SE) 3,857 12.6 -14.0°
Sets 04:08:05 0° 121° (ESE) 4,821 13.6 -13.5°
